Middletown, OH

7:32 PM EDT on March 26, 2017 (GMT -0400)
Hook Field Municipal

Weather History for KMWO - November, 2012

Change the Weather History Date:

Sunday, November 25, 2012

  Actual Average (KFFO) Record (KFFO)
Temperature  
Mean Temperature 37 °F -  
Max Temperature 47 °F 47 °F 65 °F (2006)
Min Temperature 27 °F 31 °F 12 °F (2005)
Degree Days  
Heating Degree Days 28    
Moisture  
Dew Point 28 °F    
Average Humidity 73    
Maximum Humidity 90    
Minimum Humidity 50    
Precipitation  
Precipitation 0.00 in - - ()
Sea Level Pressure  
Sea Level Pressure 30.01 in    
Wind  
Wind Speed 6 mph (SW)    
Max Wind Speed 17 mph    
Max Gust Speed 22 mph    
Visibility 10 miles    
Events      
Averages and records for this station are not official NWS values.
T = Trace of Precipitation, MM = Missing Value Source: NWS Daily Summary

Daily Weather History Graph

Daily Weather History Graph

Search for Another Location

Airport or City:

Trip Planner

Search our weather history database for the weather conditions in past years. The results will help you decide how hot, cold, wet, or windy it might be!

Date:

Astronomy

Nov. 25, 2012 Rise Set
Actual Time 7:33 AM EST 5:16 PM EST
Civil Twilight 7:03 AM EST 5:45 PM EST
Nautical Twilight 6:30 AM EST 6:18 PM EST
Astronomical Twilight 5:58 AM EST 6:50 PM EST
Moon 3:32 PM EST (11/25) 4:46 AM EST (11/25)
Length of Visible Light 10h 41m
Length of Day
9h 42m
Waxing Gibbous, 93% of the Moon is Illuminated
Nov 25
Waxing Gibbous
Nov 28
Full
Dec 6
Last Quarter
Dec 13
New
Dec 20
First Quarter

Hourly Weather History & Observations

Time (EST) Temp. Windchill Dew Point Humidity Pressure Visibility Wind Dir Wind Speed Gust Speed Precip Events Conditions
12:15 AM 27.9 °F - 25.3 °F 90% 30.13 in 10.0 mi Calm Calm - N/A   Clear
12:35 AM 27.9 °F - 25.2 °F 90% 30.12 in 10.0 mi Calm Calm - N/A   Clear
12:55 AM 27.9 °F 24.0 °F 25.3 °F 90% 30.12 in 10.0 mi SW 3.5 mph - N/A   Clear
1:15 AM 27.9 °F 22.6 °F 24.8 °F 88% 30.12 in 10.0 mi WSW 4.6 mph - N/A   Clear
1:35 AM 27.9 °F 24.0 °F 24.8 °F 88% 30.10 in 10.0 mi SSW 3.5 mph - N/A   Scattered Clouds
1:55 AM 27.9 °F 21.5 °F 24.8 °F 88% 30.10 in 10.0 mi SW 5.8 mph - N/A   Scattered Clouds
2:15 AM 27.9 °F 21.5 °F 24.4 °F 87% 30.09 in 10.0 mi SW 5.8 mph - N/A   Clear
2:35 AM 28.2 °F 20.2 °F 23.9 °F 84% 30.11 in 10.0 mi WSW 8.1 mph - N/A   Clear
2:55 AM 27.9 °F 22.6 °F 23.7 °F 84% 30.10 in 10.0 mi SW 4.6 mph - N/A   Clear
3:15 AM 27.9 °F 19.8 °F 23.5 °F 84% 30.10 in 10.0 mi SW 8.1 mph - N/A   Clear
3:35 AM 27.9 °F 21.5 °F 23.9 °F 85% 30.10 in 10.0 mi SW 5.8 mph - N/A   Clear
3:55 AM 27.9 °F 19.8 °F 24.3 °F 86% 30.09 in 10.0 mi SW 8.1 mph - N/A   Scattered Clouds
4:15 AM 27.9 °F 22.6 °F 24.1 °F 86% 30.08 in 10.0 mi SSW 4.6 mph - N/A   Scattered Clouds
4:35 AM 27.9 °F 21.5 °F 24.3 °F 86% 30.07 in 10.0 mi SSW 5.8 mph - N/A   Clear
4:55 AM 28.0 °F 21.7 °F 23.9 °F 84% 30.07 in 10.0 mi SSW 5.8 mph - N/A   Clear
5:15 AM 28.4 °F 22.2 °F 24.3 °F 84% 30.06 in 10.0 mi South 5.8 mph - N/A   Clear
5:35 AM 29.1 °F 22.1 °F 24.6 °F 83% 30.05 in 10.0 mi SSW 6.9 mph - N/A   Mostly Cloudy
5:55 AM 29.1 °F 24.1 °F 24.6 °F 83% 30.05 in 10.0 mi SSW 4.6 mph - N/A   Scattered Clouds
6:15 AM 30.2 °F 24.3 °F 25.3 °F 82% 30.04 in 10.0 mi SSW 5.8 mph - N/A   Clear
6:35 AM 30.2 °F 23.4 °F 25.2 °F 82% 30.04 in 10.0 mi SSW 6.9 mph - N/A   Clear
6:55 AM 30.2 °F 21.9 °F 24.8 °F 80% 30.03 in 10.0 mi SSW 9.2 mph - N/A   Scattered Clouds
7:15 AM 30.2 °F 22.6 °F 24.8 °F 80% 30.02 in 10.0 mi South 8.1 mph - N/A   Scattered Clouds
7:35 AM 30.2 °F 21.9 °F 24.8 °F 80% 30.01 in 10.0 mi SSW 9.2 mph - N/A   Scattered Clouds
7:55 AM 32.5 °F 25.5 °F 27.3 °F 81% 30.01 in 10.0 mi SSW 8.1 mph - N/A   Mostly Cloudy
8:15 AM 32.5 °F 24.2 °F 27.1 °F 80% 30.00 in 10.0 mi SSW 10.4 mph - N/A   Overcast
8:35 AM 32.5 °F 25.5 °F 26.8 °F 79% 29.99 in 10.0 mi South 8.1 mph - N/A   Overcast
8:55 AM 32.5 °F 25.5 °F 26.4 °F 78% 30.00 in 10.0 mi SSW 8.1 mph - N/A   Mostly Cloudy
9:15 AM 32.5 °F 24.8 °F 25.9 °F 76% 30.00 in 10.0 mi SSW 9.2 mph - N/A   Clear
9:35 AM 32.5 °F 27.1 °F 25.7 °F 76% 29.99 in 10.0 mi South 5.8 mph - N/A   Clear
9:55 AM 35.1 °F 26.9 °F 27.7 °F 74% 30.00 in 10.0 mi SW 11.5 mph - N/A   Clear
10:15 AM 35.1 °F 27.4 °F 27.0 °F 72% 30.00 in 10.0 mi SSW 10.4 mph 17.3 mph N/A   Clear
10:35 AM 35.1 °F 25.9 °F 26.4 °F 71% 29.99 in 10.0 mi SSW 13.8 mph - N/A   Clear
10:55 AM 37.6 °F 29.6 °F 27.9 °F 68% 30.00 in 10.0 mi SW 12.7 mph 17.3 mph N/A   Clear
11:15 AM 37.6 °F 29.1 °F 27.5 °F 67% 29.98 in 10.0 mi SW 13.8 mph - N/A   Clear
11:35 AM 39.0 °F 30.6 °F 27.1 °F 62% 29.97 in 10.0 mi SW 15.0 mph - N/A   Clear
11:55 AM 40.1 °F 32.4 °F 27.3 °F 60% 29.96 in 10.0 mi SW 13.8 mph 20.7 mph N/A   Clear
12:15 PM 40.6 °F 32.0 °F 27.0 °F 58% 29.95 in 10.0 mi SW 17.3 mph 21.9 mph N/A   Clear
12:35 PM 41.5 °F 33.8 °F 27.5 °F 57% 29.94 in 10.0 mi SW 15.0 mph 19.6 mph N/A   Clear
12:55 PM 41.4 °F 34.0 °F 27.1 °F 57% 29.93 in 10.0 mi SW 13.8 mph - N/A   Clear
1:15 PM 43.2 °F 37.9 °F 28.2 °F 56% 29.92 in 10.0 mi SW 9.2 mph 16.1 mph N/A   Clear
1:35 PM 46.8 °F - 30.7 °F 54% 29.92 in 10.0 mi SW 10.4 mph - N/A   Clear
1:55 PM 47.7 °F - 30.2 °F 51% 29.91 in 10.0 mi SW 11.5 mph - N/A   Clear
2:15 PM 47.7 °F - 29.7 °F 50% 29.92 in 10.0 mi WSW 9.2 mph - N/A   Clear
2:35 PM 47.7 °F - 30.9 °F 52% 29.91 in 10.0 mi SW 12.7 mph - N/A   Clear
2:55 PM 47.7 °F - 31.1 °F 53% 29.91 in 10.0 mi WSW 6.9 mph - N/A   Clear
3:15 PM 47.7 °F - 30.4 °F 51% 29.92 in 10.0 mi WSW 11.5 mph - N/A   Clear
3:35 PM 47.7 °F - 30.9 °F 52% 29.92 in 10.0 mi West 11.5 mph - N/A   Clear
3:55 PM 47.7 °F - 31.3 °F 53% 29.92 in 10.0 mi West 9.2 mph - N/A   Clear
4:15 PM 47.7 °F - 31.6 °F 54% 29.93 in 10.0 mi West 6.9 mph - N/A   Scattered Clouds
4:35 PM 47.7 °F - 31.3 °F 53% 29.94 in 10.0 mi West 11.5 mph - N/A   Scattered Clouds
4:55 PM 47.7 °F - 32.0 °F 55% 29.94 in 10.0 mi WSW 9.2 mph - N/A   Scattered Clouds
5:15 PM 45.1 °F 40.8 °F 30.6 °F 57% 29.94 in 10.0 mi WSW 8.1 mph - N/A   Clear
5:35 PM 40.8 °F 36.9 °F 28.6 °F 62% 29.95 in 10.0 mi SW 5.8 mph - N/A   Clear
5:55 PM 39.9 °F 35.8 °F 29.5 °F 66% 29.95 in 10.0 mi SW 5.8 mph - N/A   Clear
6:15 PM 39.6 °F - 30.7 °F 71% 29.95 in 10.0 mi Calm Calm - N/A   Clear
6:35 PM 40.1 °F - 30.0 °F 67% 29.96 in 10.0 mi Calm Calm - N/A   Clear
6:55 PM 40.6 °F - 29.3 °F 64% 29.97 in 10.0 mi Calm Calm - N/A   Clear
7:15 PM 40.1 °F - 30.9 °F 70% 29.97 in 10.0 mi Calm Calm - N/A   Clear
7:35 PM 39.2 °F - 31.8 °F 75% 29.98 in 10.0 mi Calm Calm - N/A   Clear
7:55 PM 37.6 °F - 31.6 °F 79% 29.99 in 10.0 mi Calm Calm - N/A   Clear
8:15 PM 38.7 °F - 31.1 °F 74% 30.00 in 10.0 mi Calm Calm - N/A   Scattered Clouds
8:35 PM 38.8 °F - 31.3 °F 74% 30.00 in 10.0 mi Calm Calm - N/A   Scattered Clouds
8:55 PM 40.1 °F - 31.5 °F 71% 30.00 in 10.0 mi Calm Calm - N/A   Mostly Cloudy
9:15 PM 38.7 °F - 32.0 °F 77% 30.01 in 10.0 mi Calm Calm - N/A   Mostly Cloudy
9:35 PM 38.1 °F - 32.2 °F 79% 30.00 in 10.0 mi Calm Calm - N/A   Scattered Clouds
9:55 PM 37.6 °F - 32.9 °F 83% 30.01 in 10.0 mi Calm Calm - N/A   Scattered Clouds
10:15 PM 38.3 °F - 32.7 °F 80% 30.02 in 10.0 mi Calm Calm - N/A   Mostly Cloudy
10:35 PM 38.7 °F - 34.2 °F 84% 30.03 in 10.0 mi Calm Calm - N/A   Overcast
10:55 PM 37.6 °F - 34.7 °F 89% 30.03 in 10.0 mi Calm Calm - N/A   Overcast
11:15 PM 37.6 °F - 34.0 °F 87% 30.04 in 10.0 mi Calm Calm - N/A   Mostly Cloudy
11:35 PM 38.8 °F - 34.0 °F 83% 30.05 in 10.0 mi Calm Calm - N/A   Scattered Clouds
11:55 PM 37.8 °F - 33.4 °F 84% 30.04 in 10.0 mi Calm Calm - N/A   Scattered Clouds